[[{"header":{"parameterUnit":"m.s-1","parameterCategory":1,"la1":30.2991,"la2":30.254,"lo1":-89.0895,"lo2":-89.0444,"dy":0.0017,"dx":0.0017,"nx":28,"ny":28,"refTime":"2025-09-15T09:00:00:Z","depth":0,"parameterNumber":2,"parameterNumberName":"U-component_of_WINDS"},"data":[0,0,0,0,0,0,0,0,0,0,0,0,0,0,0,0,0,0,0,0,0,0,0,0,0,0,0,0,0,0,0,0,0,0,0,0,0,0,0,0,0,0,0,0,0,0,0,0,0,0,0,0,0,0,0,0,0,0,-2.1552,-2.1552,0,-2.1586,-2.1586,-2.1587,-2.1564,-2.1563,-2.1562,-2.1561,-2.1595,-2.1597,-2.1599,0,0,0,0,0,0,0,0,0,0,0,0,0,-2.1467,-2.1469,-2.1552,-2.1552,-2.1553,-2.1586,-2.1586,-2.1587,-2.1564,-2.1563,-2.1562,-2.156,-2.1594,-2.1597,-2.1599,0,0,0,0,0,0,0,0,0,0,0,0,0,-2.1503,-2.147,-2.1552,-2.1545,-2.1545,-2.1586,-2.1586,-2.1587,-2.1564,-2.1563,-2.1561,-2.156,-2.1594,-2.1596,-2.1599,-2.1648,0,0,-2.1608,-2.1609,0,0,0,0,0,0,0,0,-2.1501,-2.1506,-2.1546,-2.1546,-2.1546,-2.1569,-2.1569,-2.1607,-2.1565,-2.1557,-2.1561,-2.1559,-2.1588,-2.1591,-2.1601,-2.1649,-2.1651,-2.1608,-2.161,-2.1611,-2.1612,0,0,0,0,0,0,0,-2.1498,-2.1504,-2.1565,-2.1546,-2.1546,-2.1541,-2.1544,-2.1576,-2.1581,-2.1558,-2.1556,-2.156,-2.1587,-2.1598,-2.1601,-2.1651,-2.1608,-2.161,-2.1612,-2.1613,-2.1742,-2.1744,0,0,0,0,0,0,-2.1497,-2.1503,-2.1564,-2.1566,-2.1519,-2.1544,-2.1547,-2.1563,-2.158,-2.1581,-2.1562,-2.1559,-2.1594,-2.1598,-2.1602,-2.166,-2.1611,-2.1614,-2.1615,-2.174,-2.1742,-2.1744,0,0,0,0,0,0,-2.1495,-2.1502,-2.1563,-2.1534,-2.1541,-2.1547,-2.1565,-2.1565,-2.1575,-2.1583,-2.1584,-2.1572,-2.1593,-2.1598,-2.1637,-2.1661,-2.1615,-2.1617,-2.1738,-2.1741,-2.1743,-2.1777,0,0,0,0,0,0,-2.1493,-2.1502,-2.152,-2.1535,-2.1543,-2.1597,-2.1566,-2.1566,-2.158,-2.1577,-2.1593,-2.1594,-2.1592,-2.1633,-2.164,-2.1664,-2.162,-2.1736,-2.1739,-2.1742,-2.1773,-2.178,-2.1786,0,0,0,0,0,-2.149,-2.1528,-2.1521,-2.1529,-2.1566,-2.1598,-2.1603,-2.16,-2.1582,-2.1601,-2.1606,-2.1593,-2.1658,-2.1637,-2.1644,-2.167,-2.1734,-2.1738,-2.1742,-2.1771,-2.1779,-2.1786,0,0,0,0,0,0,-2.1516,-2.153,-2.1522,-2.1567,-2.1581,-2.1594,-2.1617,-2.1609,-2.1628,-2.1625,-2.162,-2.1624,-2.1664,-2.1671,-2.1648,-2.1718,-2.1693,-2.1699,-2.1712,-2.172,-2.1726,-2.1724,-2.1622,0,0,0,0,0,-2.1527,-2.1552,-2.1563,-2.1601,-2.1609,-2.1612,-2.1626,-2.1622,-2.1637,-2.1643,-2.1651,-2.1666,-2.169,-2.1705,-2.1727,-2.1775,-2.1778,-2.1796,-2.1802,-2.1808,-2.1812,-2.1838,-2.1846,-2.1757,-2.1757,-2.1757,0,0,-2.155,-2.1561,-2.1577,-2.1606,-2.1617,-2.1643,-2.1617,-2.1646,-2.1665,-2.1648,-2.1684,-2.1691,-2.1707,-2.175,-2.177,-2.1757,-2.1838,-2.1812,-2.1816,-2.1818,-2.1843,-2.1851,-2.1859,-2.176,-2.1759,-2.1759,0,0,-2.1605,-2.1616,-2.1649,-2.1661,-2.1678,-2.168,-2.1688,-2.1702,-2.1706,-2.1743,-2.1731,-2.1753,-2.1794,-2.1806,-2.1818,-2.1879,-2.1868,-2.1886,-2.1918,-2.1944,-2.1951,-2.1957,-2.1979,-2.1987,-2.1891,-2.1891,-2.1891,0,-2.1632,-2.167,-2.1667,-2.1697,-2.171,-2.1696,-2.173,-2.1741,-2.1765,-2.1774,-2.176,-2.1811,-2.1821,-2.1867,-2.1882,-2.1892,-2.1901,-2.1884,-2.195,-2.1956,-2.1962,-2.1983,-2.1991,-2.1893,-2.1893,-2.1893,-2.1892,0,-2.1702,-2.1729,-2.1754,-2.1777,-2.1793,-2.1825,-2.1826,-2.1843,-2.1839,-2.1842,-2.188,-2.1892,-2.1917,-2.1927,-2.1923,-2.1973,-2.1965,-2.195,-2.1925,-2.1973,-2.1992,-2.2,-2.1896,-2.1895,-2.1895,-2.1894,0,0,-2.1774,-2.1796,-2.1805,-2.1816,-2.1834,-2.1855,-2.1886,-2.191,-2.1925,-2.1941,-2.1967,-2.2002,-2.199,-2.2003,-2.2,-2.2022,-2.207,-2.2005,-2.2005,-2.2017,-2.2126,-2.2136,-2.2146,-2.2063,-2.2064,-2.2066,-2.2124,0,-2.1831,-2.1885,-2.1883,-2.1933,-2.1958,-2.1946,-2.1973,-2.1987,-2.1991,-2.2013,-2.2018,-2.2043,-2.2024,-2.2032,-2.2054,-2.2059,-2.2092,-2.2055,-2.2087,-2.2088,-2.2083,-2.2156,-2.2167,-2.2222,-2.2132,-2.2133,-2.2134,0,-2.1904,-2.1923,-2.1976,-2.1991,-2.2002,-2.2026,-2.2048,-2.2069,-2.2085,-2.2087,-2.2102,-2.2096,-2.2127,-2.2101,-2.2145,-2.212,-2.2133,-2.2138,-2.214,-2.2143,-2.2114,-2.216,-2.2239,-2.2248,-2.2146,-2.2145,-2.2144,0,-2.1951,-2.1991,-2.2028,-2.2037,-2.2056,-2.2073,-2.2081,-2.2096,-2.2111,-2.213,-2.214,-2.2163,-2.2175,-2.2193,-2.2193,-2.2174,-2.2238,-2.2211,-2.224,-2.224,-2.2253,-2.2253,-2.2336,-2.2262,-2.2262,-2.2262,-2.2262,0,-2.2015,-2.2048,-2.205,-2.2072,-2.2109,-2.2107,-2.2143,-2.215,-2.2163,-2.2187,-2.2177,-2.22,-2.2199,-2.2222,-2.2222,-2.2258,-2.2264,-2.2266,-2.2266,-2.2267,-2.2267,-2.2275,-2.2272,-2.2264,-2.2263,-2.2263,-2.2263,0,-2.2074,-2.2077,-2.2116,-2.2131,-2.2135,-2.2161,-2.2173,-2.2195,-2.2199,-2.2229,-2.2236,-2.2242,-2.2269,-2.2271,-2.2301,-2.2302,-2.2346,-2.2341,-2.234,-2.234,-2.2368,-2.2365,-2.2459,-2.2472,-2.239,-2.2391,-2.2391,0,-2.2114,-2.214,-2.2156,-2.2172,-2.2181,-2.2206,-2.2221,-2.222,-2.2236,-2.2256,-2.2276,-2.2302,-2.2322,-2.2365,-2.2373,-2.2396,-2.2392,-2.2424,-2.2396,-2.2396,-2.2393,-2.2392,-2.2394,-2.2429,-2.243,-2.2431,-2.2431,0,-2.2186,-2.2186,-2.2208,-2.2231,-2.2249,-2.2267,-2.2284,-2.2297,-2.2298,-2.2317,-2.2344,-2.236,-2.2391,-2.2417,-2.2441,-2.2449,-2.2441,-2.244,-2.2448,-2.2449,-2.2448,-2.2449,-2.2355,-2.2438,-2.2437,-2.2437,-2.2436,-2.2436,-2.2237,-2.2259,-2.2274,-2.23,-2.2312,-2.2328,-2.2349,-2.2356,-2.2378,-2.2404,-2.2402,-2.2432,-2.2448,-2.2478,-2.2489,-2.2512,-2.2502,-2.2513,-2.2516,-2.2519,-2.2522,-2.2444,-2.2517,-2.2516,-2.2516,-2.2516,-2.2516,0,-2.2308,-2.2318,-2.2341,-2.2364,-2.2384,-2.2374,-2.2392,-2.241,-2.2437,-2.2452,-2.2472,-2.2504,-2.2529,-2.2538,-2.2563,-2.258,-2.2577,-2.2587,-2.2585,-2.2588,-2.253,-2.2521,-2.2589,-2.2589,-2.2589,-2.2589,-2.2589,-2.2589,-2.2348,-2.2384,-2.2386,-2.2429,-2.2438,-2.2468,-2.2479,-2.2494,-2.2506,-2.2542,-2.2562,-2.2568,-2.2581,-2.2607,-2.2629,-2.2631,-2.2641,-2.2653,-2.2653,-2.2599,-2.2592,-2.2585,-2.2576,-2.2655,-2.2655,-2.2709,-2.2709,-2.271]},{"header":{"parameterUnit":"m.s-1","parameterCategory":1,"la1":30.2991,"la2":30.254,"lo1":-89.0895,"lo2":-89.0444,"dy":0.0017,"dx":0.0017,"nx":28,"ny":28,"refTime":"2025-09-15T09:00:00:Z","depth":0,"parameterNumber":3,"parameterNumberName":"V-component_of_WINDS"},"data":[0,0,0,0,0,0,0,0,0,0,0,0,0,0,0,0,0,0,0,0,0,0,0,0,0,0,0,0,0,0,0,0,0,0,0,0,0,0,0,0,0,0,0,0,0,0,0,0,0,0,0,0,0,0,0,0,0,0,4.3897,4.3898,0,4.3958,4.3959,4.3959,4.3933,4.3932,4.393,4.3929,4.3987,4.3989,4.3992,0,0,0,0,0,0,0,0,0,0,0,0,0,4.3754,4.3757,4.3897,4.3898,4.3899,4.3958,4.3959,4.3959,4.3934,4.3932,4.393,4.3928,4.3986,4.3989,4.3993,0,0,0,0,0,0,0,0,0,0,0,0,0,4.3816,4.3758,4.3897,4.3893,4.3893,4.3958,4.3959,4.396,4.3934,4.3932,4.393,4.3928,4.3984,4.3989,4.3993,4.4064,0,0,4.4006,4.4008,0,0,0,0,0,0,0,0,4.3812,4.3821,4.3893,4.3893,4.3894,4.3936,4.3929,4.3994,4.3934,4.3918,4.3929,4.3926,4.3971,4.3976,4.3993,4.4066,4.4069,4.4007,4.4009,4.4011,4.4012,0,0,0,0,0,0,0,4.3808,4.3818,4.3921,4.3894,4.3894,4.3887,4.3893,4.3942,4.3956,4.392,4.3918,4.3926,4.3971,4.3988,4.3994,4.407,4.4007,4.401,4.4013,4.4015,4.4204,4.4206,0,0,0,0,0,0,4.3804,4.3815,4.3919,4.3923,4.3847,4.3891,4.3898,4.3924,4.3956,4.3958,4.3927,4.3924,4.3982,4.3989,4.3996,4.408,4.4011,4.4015,4.4018,4.4202,4.4205,4.4207,0,0,0,0,0,0,4.3801,4.3814,4.3917,4.3868,4.3881,4.3896,4.3926,4.3927,4.3944,4.3962,4.3964,4.3943,4.3981,4.3989,4.4047,4.4082,4.4017,4.4021,4.4199,4.4203,4.4206,4.425,0,0,0,0,0,0,4.3797,4.3813,4.3841,4.3869,4.3884,4.3969,4.3928,4.393,4.3952,4.3949,4.3977,4.3979,4.398,4.4041,4.4052,4.4087,4.4024,4.4196,4.4201,4.4205,4.4245,4.4255,4.4263,0,0,0,0,0,4.3792,4.385,4.3842,4.3855,4.3919,4.3971,4.3979,4.3979,4.3955,4.3983,4.3994,4.3978,4.4077,4.4047,4.4059,4.4096,4.4194,4.4199,4.4204,4.4242,4.4253,4.4262,0,0,0,0,0,0,4.3823,4.3853,4.3845,4.3914,4.394,4.3966,4.4001,4.3991,4.4023,4.4018,4.4017,4.4023,4.4083,4.4095,4.4062,4.4166,4.4131,4.4139,4.4155,4.4166,4.4175,4.417,4.4028,0,0,0,0,0,4.3838,4.3879,4.3903,4.3961,4.3974,4.3986,4.4008,4.4007,4.4033,4.4043,4.4059,4.4083,4.412,4.4144,4.4178,4.4247,4.4253,4.4279,4.4287,4.4294,4.4301,4.4338,4.435,4.4225,4.4225,4.4225,0,0,4.3869,4.389,4.3916,4.3967,4.3987,4.4029,4.3995,4.4039,4.407,4.4049,4.4105,4.4118,4.4145,4.4209,4.4238,4.4221,4.4336,4.4301,4.4306,4.4309,4.4345,4.4356,4.4367,4.4229,4.4228,4.4228,0,0,4.3946,4.3967,4.4018,4.4039,4.4071,4.4078,4.409,4.4118,4.4126,4.4182,4.4168,4.4203,4.4266,4.4287,4.4305,4.4391,4.4378,4.4402,4.4446,4.4483,4.4493,4.4501,4.4531,4.4542,4.4409,4.4409,4.4409,0,4.398,4.4043,4.4045,4.4091,4.4114,4.41,4.415,4.417,4.4211,4.4226,4.4207,4.4287,4.4304,4.4372,4.4394,4.4409,4.4422,4.4399,4.4491,4.45,4.4508,4.4537,4.4548,4.4412,4.4412,4.4411,4.4411,0,4.4082,4.4126,4.4163,4.4205,4.4232,4.428,4.4288,4.4315,4.4312,4.432,4.4378,4.4399,4.4437,4.4453,4.445,4.4521,4.451,4.4492,4.4457,4.4523,4.455,4.4561,4.4416,4.4415,4.4414,4.4414,0,0,4.4179,4.4223,4.4236,4.4255,4.4289,4.4322,4.437,4.4409,4.4432,4.446,4.4499,4.4554,4.4537,4.4558,4.4557,4.4589,4.4655,4.4566,4.4567,4.4581,4.4735,4.4748,4.4761,4.4647,4.4649,4.4651,4.4732,0,4.4259,4.4344,4.4347,4.4424,4.4464,4.4452,4.4493,4.4517,4.4527,4.4561,4.4571,4.461,4.4585,4.4598,4.4629,4.4641,4.4686,4.4635,4.4682,4.4684,4.4675,4.4775,4.4789,4.4865,4.4743,4.4745,4.4746,0,4.4362,4.4396,4.4477,4.4507,4.4523,4.4561,4.4597,4.4631,4.4658,4.4663,4.4688,4.4682,4.4729,4.4694,4.4758,4.4724,4.4743,4.4752,4.4754,4.4758,4.4718,4.478,4.4889,4.49,4.4763,4.4761,4.476,0,4.4424,4.449,4.4547,4.4564,4.4599,4.4625,4.4641,4.4667,4.4691,4.4722,4.4737,4.4774,4.4793,4.4821,4.4824,4.4799,4.4889,4.4854,4.4893,4.4893,4.4912,4.491,4.5024,4.4926,4.4926,4.4926,4.4926,0,4.4512,4.4562,4.4576,4.4611,4.4666,4.4669,4.4724,4.4737,4.476,4.4797,4.4788,4.4822,4.4826,4.486,4.4863,4.4916,4.4925,4.4929,4.4929,4.493,4.4929,4.4942,4.4936,4.4929,4.4928,4.4928,4.4927,0,4.459,4.4601,4.4663,4.4692,4.47,4.474,4.4764,4.4797,4.4807,4.4853,4.4864,4.4878,4.4919,4.4926,4.4973,4.4975,4.5038,4.5033,4.5029,4.5028,4.5067,4.5063,4.5192,4.5209,4.51,4.5101,4.5102,0,4.4644,4.4683,4.4717,4.4742,4.4759,4.4799,4.4824,4.4829,4.4854,4.4889,4.4918,4.4958,4.499,4.5056,4.5069,4.5106,4.5101,4.5144,4.5106,4.5105,4.5101,4.5098,4.5101,4.515,4.5152,4.5153,4.5153,0,4.474,4.4744,4.4781,4.482,4.4851,4.4881,4.491,4.493,4.4939,4.4968,4.501,4.5036,4.5085,4.5125,4.5161,4.5175,4.5166,4.5166,4.5176,4.5176,4.5172,4.5175,4.5048,4.5162,4.5161,4.5161,4.516,4.516,4.4808,4.4841,4.4871,4.4912,4.4935,4.4962,4.4995,4.501,4.5046,4.5087,4.5088,4.5134,4.516,4.5209,4.5226,4.5261,4.5247,4.5263,4.5267,4.527,4.5274,4.5168,4.5268,4.5268,4.5267,4.5267,4.5267,0,4.4902,4.4921,4.4959,4.5001,4.5033,4.5024,4.5055,4.5082,4.5124,4.515,4.5183,4.5232,4.527,4.5288,4.5326,4.5351,4.5347,4.536,4.5358,4.5361,4.5284,4.5271,4.5363,4.5363,4.5363,4.5363,4.5363,4.5363,4.4955,4.5012,4.502,4.5087,4.5105,4.5152,4.5171,4.5196,4.5217,4.5272,4.5305,4.5317,4.534,4.5379,4.5414,4.5418,4.5432,4.5447,4.5449,4.5377,4.5367,4.5357,4.5345,4.545,4.5451,4.5523,4.5523,4.5524]}]]